Regional Weather Roundup
Issued by NWS

Home | Current Version | Previous Version | Graphics & Text | Print | Product List | Glossary Off
Versions: 1 2 3 4 5 6 7 8 9 10 11 12 13 14 15 16 17 18 19 20 21 22 23 24 25 26 27 28 29 30 31 32 33 34 35 36 37 38 39 40 41 42 43 44 45 46 47 48 49 50

000
ASUS43 KDTX 260401
RWRMI
MICHIGAN HOURLY REGIONAL WEATHER ROUNDUP
NATIONAL WEATHER SERVICE DETROIT/PONTIAC MI
1200 AM EDT THU MAY 26 2016

NOTE: "FAIR" INDICATES FEW OR NO CLOUDS BELOW 12,000 FEET WITH NO
SIGNIFICANT WEATHER AND/OR OBSTRUCTION TO VISIBILITY.

MIZ047>049-052>055-059>063-066>070-074>076-081>083-260500-
SOUTHEAST LOWER MICHIGAN

CITY           SKY/WX    TMP DP  RH WIND       PRES   REMARKS
ADRIAN         CLOUDY    74  60  61 SW14      29.99F
ALMA           PTCLDY    66  59  78 NE7       29.95F
ANN ARBOR      CLOUDY    73  60  63 S6        29.99F
BAD AXE        PTCLDY    61  54  77 CALM      29.99F
CARO           CLOUDY    64  59  82 CALM      29.97F
DETROIT CITY   CLOUDY    73  59  61 S12       30.00F
DETROIT        CLOUDY    74  59  59 S14       30.00F
FLINT          PTCLDY    72  59  63 S6        29.97F
GROSSE ILE     LGT RAIN  66  63  88 S9        30.00S
HILLSDALE      PTCLDY    71  54  54 S6        29.99S
HOWELL         MOCLDY    71  58  64 SE8       29.98F

CITY           SKY/WX    TMP DP  RH WIND       PRES   REMARKS
JACKSON        CLEAR     69  58  67 SE8       29.97F
LAMBERTVILLE   CLOUDY    74  60  61 S7        30.00F
LANSING        MOCLDY    73  58  59 SE9       29.96F
LAPEER         FAIR      69  57  65 SE5       30.00S
MASON          CLOUDY    72  58  63 SE7       29.97S
MONROE         CLOUDY    70  64  83 SE7       29.99F
MT. CLEMENS    PTCLDY    69  60  73 S9        29.99F
PONTIAC        CLOUDY    74  58  57 SE9       29.99F
PORT HOPE        N/A     61  54  77 SE6       29.97F
PORT HURON     MOCLDY    68  59  73 S5        30.01F
TRI CITIES     MOCLDY    63  57  81 NE5       29.97F
MIDLAND        FAIR      61  55  79 E3        29.96F
TROY           CLOUDY    76  57  51 S9G18     30.02S
SAGINAW HB     MOCLDY    64  59  82 CALM      29.96F
$$
MIZ043>046-050>051-056>058-064>065-071>073-077>080-260500-
SOUTHWEST LOWER MICHIGAN

CITY           SKY/WX    TMP DP  RH WIND       PRES   REMARKS
BATTLE CREEK   CLOUDY    73  61  65 W8        29.98R
BENTON HARBOR  LGT RAIN  64  63  96 VRB5      29.99R
BIG RAPIDS     CLOUDY    67  65  93 CALM      29.97R
COLDWATER      MOCLDY    75  59  56 S3        29.97S
FREMONT        DRIZZLE   66  66 100 N3        29.95F
HOLLAND        RAIN      65  61  87 SW17      30.03R
GRAND RAPIDS   CLOUDY    73  60  63 W8        29.97R
IONIA          CLOUDY    74  58  55 W9        29.95R
KALAMAZOO      CLOUDY    72  61  68 W16       29.99R THUNDER
LUDINGTON      LGT RAIN  66  64  92 S7        29.95S
MARSHALL       MOCLDY    74  59  60 SE5       29.96S
MOUNT PLEASANT CLOUDY    62  56  82 NE3       29.96F
MUSKEGON       LGT RAIN  64  59  83 SW10      29.96R
SOUTH HAVEN    HVY RAIN  64  63  97 NW8       30.02R
$$
MIZ016>042-260500-
NORTHERN LOWER MICHIGAN

CITY           SKY/WX    TMP DP  RH WIND       PRES   REMARKS
ALPENA         CLOUDY    60  52  74 SE7       30.01F
BEAVER ISLAND  CLOUDY    61  55  81 E12       29.95S
BELLAIRE       CLOUDY    63  60  91 CALM      29.95F
CADILLAC       DRIZZLE   63  62  95 E10       29.95F
CHARLEVOIX     CLOUDY    67  56  68 E9        29.98S
FRANKFORT      CLOUDY    70  63  77 SE6       29.90F
GAYLORD        CLOUDY    64  53  67 SE8       30.00F
GRAYLING       RAIN      62  57  83 E10       30.00F
HARBOR SPRINGS CLOUDY    64  56  74 E10       29.97F
HOUGHTON LAKE  CLOUDY    61  56  83 NE6       29.99F
MANISTEE       CLOUDY    72  61  68 S6        29.95R
OSCODA         CLOUDY    62  52  70 E6        30.00F
PELLSTON       CLOUDY    64  56  75 SE7       29.98F
ROGERS CITY    MOCLDY    63  52  67 SE7       30.01F
TRAVERSE CITY  CLOUDY    68  61  78 SE8G17    29.92F
$$
MIZ007>008-015-260500-
EASTERN UPPER MICHIGAN

CITY           SKY/WX    TMP DP  RH WIND       PRES   REMARKS
KINROSS          N/A     59  52  77 SE10      30.00S
MACKINAC ISLAN CLOUDY    62  53  72 SE8G17    29.99S
NEWBERRY       CLOUDY    61  55  79 SE10G17   29.97S
S. S. MARIE    PTCLDY    58  52  80 SE5       30.00F
MUNISING         N/A     50  46  86 CALM      29.91F
$$
MIZ004>006-011>014-085-260500-
CENTRAL UPPER MICHIGAN

CITY           SKY/WX    TMP DP  RH WIND       PRES   REMARKS
MANISTIQUE     CLOUDY    63  56  77 E12G17    29.93F
ESCANABA       CLOUDY    63  55  77 CALM      29.91F
MENOMINEE      CLOUDY    57  55  94 CALM      29.91F
SAWYER-GWINN   LGT RAIN  55  53  94 E5        29.92F
$$
MIZ001>003-009>011-084-260500-
WESTERN UPPER MICHIGAN

CITY           SKY/WX    TMP DP  RH WIND       PRES   REMARKS
IRON MOUNTAIN  LGT RAIN  60  58  92 SE6       29.89F
HOUGHTON       RAIN      49  47  93 E12       29.95S
COPPER HARBOR    N/A     46  42  86 CALM      29.98R
IRONWOOD       CLOUDY    50  50 100 E6        29.85F
$$

ABBREVIATIONS USED IN REMARKS
   TC - TEMPERATURE IN CELSIUS
  WCI - WIND CHILL INDEX
   HX - HEAT INDEX
  VSB - VISIBILITY





USA.gov is the U.S. government's official web portal to all federal, state and local government web resources and services.